Daleville, AL

7:16 PM CST on February 10, 2016 (GMT -0600)
Cairns Army Air Field

Weather History for KOZR - March, 2012

Change the Weather History Date:

Friday, March 30, 2012

  Actual Average Record
Temperature  
Mean Temperature 70 °F -  
Max Temperature 79 °F 71 °F 84 °F (1998)
Min Temperature 62 °F 48 °F 39 °F (2009)
Cooling Degree Days 4    
Growing Degree Days 20 (Base 50)    
Moisture  
Dew Point 65 °F    
Average Humidity 92    
Maximum Humidity 100    
Minimum Humidity 65    
Precipitation  
Precipitation 1.40 in - - ()
Sea Level Pressure  
Sea Level Pressure 29.96 in    
Wind  
Wind Speed 3 mph (South)    
Max Wind Speed 23 mph    
Max Gust Speed 34 mph    
Visibility 7 miles    
Events Fog , Rain , Thunderstorm    
Averages and records for this station are not official NWS values.
T = Trace of Precipitation, MM = Missing Value Source: NWS Daily Summary

Daily Weather History Graph

Daily Weather History Graph

Search for Another Location

Airport or City:

Trip Planner

Search our weather history database for the weather conditions in past years. The results will help you decide how hot, cold, wet, or windy it might be!

Date:

Astronomy

Mar. 30, 2012 Rise Set
Actual Time 6:33 AM CDT 7:01 PM CDT
Civil Twilight 6:09 AM CDT 7:25 PM CDT
Nautical Twilight 5:40 AM CDT 7:54 PM CDT
Astronomical Twilight 5:11 AM CDT 8:23 PM CDT
Moon 11:55 AM CDT (3/30) 1:19 AM CDT (3/30)
Length of Visible Light 13h 16m
Length of Day
12h 27m
Waxing Crescent, 49% of the Moon is Illuminated
Mar 30
Waxing Crescent
Mar 30
First Quarter
Apr 6
Full
Apr 13
Last Quarter
Apr 21
New

Hourly Weather History & Observations

Time (CDT) Temp. Dew Point Humidity Pressure Visibility Wind Dir Wind Speed Gust Speed Precip Events Conditions
12:12 AM 64.4 °F 60.8 °F 88% 29.99 in 10.0 mi Calm Calm - N/A   Mostly Cloudy
12:41 AM 66.2 °F 62.6 °F 88% 29.98 in 10.0 mi Calm Calm - N/A   Overcast
12:55 AM 65.5 °F 62.2 °F 89% 29.98 in 10.0 mi Calm Calm - N/A   Mostly Cloudy
12:57 AM 66.2 °F 62.6 °F 88% 29.98 in 10.0 mi Calm Calm - N/A   Mostly Cloudy
1:00 AM 66.2 °F 62.6 °F 88% 29.98 in 10.0 mi Calm Calm - N/A   Mostly Cloudy
1:06 AM 66.2 °F 62.6 °F 88% 29.98 in 10.0 mi Calm Calm - N/A   Mostly Cloudy
1:20 AM 66.2 °F 62.6 °F 88% 29.98 in 10.0 mi Calm Calm - N/A   Overcast
1:31 AM 66.2 °F 62.6 °F 88% 29.98 in 10.0 mi Calm Calm - N/A   Overcast
1:35 AM 66.2 °F 62.6 °F 88% 29.97 in 10.0 mi South 3.5 mph - N/A   Overcast
1:54 AM 66.2 °F 62.6 °F 88% 29.97 in 10.0 mi Calm Calm - N/A   Overcast
1:55 AM 65.3 °F 63.1 °F 93% 29.97 in 10.0 mi Calm Calm - N/A   Overcast
2:16 AM 66.2 °F 64.4 °F 94% 29.97 in 10.0 mi Calm Calm - N/A   Overcast
2:41 AM 66.2 °F 64.4 °F 94% 29.96 in 10.0 mi Calm Calm - N/A   Overcast
2:47 AM 66.2 °F 64.4 °F 94% 29.96 in 10.0 mi Calm Calm - N/A   Overcast
2:55 AM 66.2 °F 64.2 °F 93% 29.95 in 10.0 mi Calm Calm - N/A   Overcast
3:17 AM 66.2 °F 64.4 °F 94% 29.95 in 10.0 mi Calm Calm - N/A   Mostly Cloudy
3:39 AM 66.2 °F 64.4 °F 94% 29.95 in 10.0 mi Calm Calm - N/A   Overcast
3:42 AM 66.2 °F 64.4 °F 94% 29.95 in 10.0 mi Calm Calm - N/A   Overcast
3:53 AM 66.2 °F 64.4 °F 94% 29.95 in 10.0 mi Calm Calm - N/A   Overcast
3:55 AM 65.7 °F 63.9 °F 94% 29.95 in 10.0 mi Calm Calm - N/A   Overcast
4:15 AM 66.2 °F 64.4 °F 94% 29.96 in 10.0 mi Calm Calm - N/A   Overcast
4:20 AM 66.2 °F 64.4 °F 94% 29.96 in 10.0 mi Calm Calm - N/A   Overcast
4:25 AM 66.2 °F 64.4 °F 94% 29.96 in 10.0 mi Calm Calm - N/A   Mostly Cloudy
4:27 AM 66.2 °F 64.4 °F 94% 29.96 in 10.0 mi Calm Calm - N/A   Mostly Cloudy
4:29 AM 66.2 °F 64.4 °F 94% 29.96 in 10.0 mi Calm Calm - N/A   Mostly Cloudy
4:39 AM 66.2 °F 64.4 °F 94% 29.97 in 10.0 mi Calm Calm - N/A   Overcast
4:55 AM 66.2 °F 65.3 °F 97% 29.97 in 10.0 mi Calm Calm - N/A   Overcast
5:00 AM 66.2 °F 66.2 °F 100% 29.97 in 9.0 mi Calm Calm - N/A   Overcast
5:55 AM 66.6 °F 66.0 °F 98% 29.98 in 5.0 mi South 4.6 mph - N/A   Overcast
6:10 AM 66.2 °F 66.2 °F 100% 29.98 in 2.5 mi SSE 4.6 mph - N/A   Overcast
6:14 AM 66.2 °F 66.2 °F 100% 29.98 in 1.8 mi South 4.6 mph - N/A   Overcast
6:16 AM 66.2 °F 66.2 °F 100% 29.98 in 1.8 mi South 4.6 mph - N/A   Overcast
6:23 AM 66.2 °F 66.2 °F 100% 29.98 in 2.0 mi South 5.8 mph - N/A   Overcast
6:29 AM 66.2 °F 66.2 °F 100% 29.99 in 1.8 mi South 4.6 mph - N/A   Overcast
6:35 AM 66.2 °F 66.2 °F 100% 29.99 in 1.2 mi South 3.5 mph - N/A   Overcast
6:41 AM 66.2 °F 66.2 °F 100% 29.99 in 1.0 mi South 4.6 mph - N/A   Mist
6:44 AM 66.2 °F 66.2 °F 100% 29.99 in 0.8 mi South 3.5 mph - N/A   Mist
6:49 AM 66.2 °F 66.2 °F 100% 29.99 in 0.5 mi South 4.6 mph - N/A Fog Fog
6:55 AM 66.6 °F 66.2 °F 99% 30.00 in 0.8 mi South 3.5 mph - N/A   Mist
7:07 AM 66.2 °F 66.2 °F 100% 30.00 in 1.0 mi South 4.6 mph - N/A   Mist
7:14 AM 66.2 °F 66.2 °F 100% 30.01 in 1.2 mi South 4.6 mph - N/A   Overcast
7:17 AM 66.2 °F 66.2 °F 100% 30.01 in 1.5 mi South 4.6 mph - N/A   Overcast
7:21 AM 66.2 °F 66.2 °F 100% 30.01 in 2.0 mi South 5.8 mph - N/A   Overcast
7:32 AM 66.2 °F 66.2 °F 100% 30.01 in 1.8 mi South 4.6 mph - N/A   Overcast
7:34 AM 66.2 °F 66.2 °F 100% 30.01 in 1.8 mi South 5.8 mph - N/A   Overcast
7:44 AM 66.2 °F 66.2 °F 100% 30.02 in 2.0 mi South 3.5 mph - N/A   Overcast
7:49 AM 68.0 °F 66.2 °F 94% 30.02 in 3.0 mi South 4.6 mph - N/A   Overcast
7:55 AM 67.1 °F 66.9 °F 99% 30.02 in 4.0 mi South 4.6 mph - N/A   Overcast
8:41 AM 68.0 °F 66.2 °F 94% 30.02 in 10.0 mi South 3.5 mph - N/A   Overcast
8:51 AM 68.0 °F 66.2 °F 94% 30.02 in 10.0 mi Calm Calm - N/A   Overcast
8:55 AM 68.5 °F 66.7 °F 94% 30.02 in 10.0 mi South 3.5 mph - N/A   Overcast
9:07 AM 69.8 °F 66.2 °F 88% 30.03 in 10.0 mi SSE 5.8 mph - N/A   Overcast
9:26 AM 69.8 °F 68.0 °F 94% 30.02 in 10.0 mi SSE 6.9 mph - N/A   Overcast
9:37 AM 69.8 °F 66.2 °F 88% 30.02 in 10.0 mi SE 4.6 mph - N/A   Overcast
9:53 AM 71.6 °F 68.0 °F 88% 30.01 in 10.0 mi South 5.8 mph - N/A   Mostly Cloudy
9:55 AM 71.4 °F 67.3 °F 87% 30.01 in 10.0 mi Variable 4.6 mph - N/A   Mostly Cloudy
10:03 AM 71.6 °F 68.0 °F 88% 30.02 in 10.0 mi South 8.1 mph - N/A   Mostly Cloudy
10:07 AM 71.6 °F 68.0 °F 88% 30.02 in 10.0 mi SSE 6.9 mph - N/A   Mostly Cloudy
10:27 AM 73.4 °F 68.0 °F 83% 30.01 in 10.0 mi South 8.1 mph - N/A   Scattered Clouds
10:55 AM 73.9 °F 66.9 °F 79% 30.00 in 10.0 mi SSE 6.9 mph - N/A   Partly Cloudy
11:55 AM 77.4 °F 66.0 °F 68% 29.97 in 10.0 mi SSE 12.7 mph 18.4 mph N/A   Partly Cloudy
12:55 PM 77.0 °F 64.8 °F 66% 29.94 in 10.0 mi SSE 6.9 mph - N/A   Clear
12:58 PM 77.0 °F 64.4 °F 65% 29.93 in 10.0 mi SE 5.8 mph - N/A Rain Light Rain
1:09 PM 75.2 °F 66.2 °F 73% 29.93 in 10.0 mi SSE 5.8 mph - N/A Rain , Thunderstorm Light Thunderstorms and Rain
1:20 PM 75.2 °F 66.2 °F 73% 29.94 in 2.5 mi South 8.1 mph - N/A Rain , Thunderstorm Heavy Thunderstorms and Rain
1:21 PM 75.2 °F 66.2 °F 73% 29.94 in 1.8 mi South 8.1 mph - N/A Rain , Thunderstorm Heavy Thunderstorms and Rain
1:22 PM 73.4 °F 68.0 °F 83% 29.95 in 1.2 mi SSW 9.2 mph - N/A Rain , Thunderstorm Heavy Thunderstorms and Rain
1:23 PM 73.4 °F 68.0 °F 83% 29.96 in 0.8 mi SSW 10.4 mph - N/A Rain , Thunderstorm Heavy Thunderstorms and Rain
1:24 PM 73.4 °F 66.2 °F 78% 29.96 in 0.5 mi SSW 12.7 mph - N/A Rain , Thunderstorm Heavy Thunderstorms and Rain
1:26 PM 71.6 °F 62.6 °F 73% 29.95 in 0.5 mi South 23.0 mph 34.5 mph N/A Rain , Thunderstorm Heavy Thunderstorms and Rain
1:27 PM 71.6 °F 60.8 °F 69% 29.95 in 0.2 mi South 15.0 mph 34.5 mph N/A Rain , Thunderstorm Heavy Thunderstorms and Rain
1:31 PM 69.8 °F 60.8 °F 73% 29.96 in 0.2 mi SSE 9.2 mph 34.5 mph N/A Rain , Thunderstorm Heavy Thunderstorms and Rain
1:40 PM 66.2 °F 60.8 °F 83% 29.97 in 0.2 mi East 4.6 mph 25.3 mph N/A Rain , Thunderstorm Heavy Thunderstorms and Rain
1:49 PM 64.4 °F 60.8 °F 88% 29.92 in 0.2 mi ESE 13.8 mph 19.6 mph N/A Fog , Rain , Thunderstorm Heavy Thunderstorms and Rain
1:53 PM 64.4 °F 60.8 °F 88% 29.94 in 0.2 mi North 8.1 mph 19.6 mph N/A Rain , Thunderstorm Thunderstorms and Rain
1:54 PM 64.4 °F 60.8 °F 88% 29.94 in 0.5 mi North 9.2 mph 19.6 mph N/A Fog , Rain , Thunderstorm Thunderstorms and Rain
1:55 PM 64.2 °F 60.4 °F 87% 29.94 in 0.5 mi NNE 8.1 mph 19.6 mph 1.38 in Fog , Rain , Thunderstorm Thunderstorms and Rain
1:57 PM 64.4 °F 60.8 °F 88% 29.94 in 1.0 mi North 4.6 mph 19.6 mph N/A Rain , Thunderstorm Heavy Thunderstorms and Rain
1:58 PM 64.4 °F 60.8 °F 88% 29.94 in 1.2 mi Variable 4.6 mph - N/A Rain , Thunderstorm Heavy Thunderstorms and Rain
1:59 PM 64.4 °F 60.8 °F 88% 29.94 in 1.5 mi Variable 4.6 mph - N/A Rain , Thunderstorm Heavy Thunderstorms and Rain
2:02 PM 64.4 °F 60.8 °F 88% 29.94 in 2.0 mi NW 10.4 mph - N/A Rain , Thunderstorm Heavy Thunderstorms and Rain
2:11 PM 64.4 °F 60.8 °F 88% 29.93 in 1.8 mi North 11.5 mph - N/A Rain , Thunderstorm Heavy Thunderstorms and Rain
2:20 PM 62.6 °F 60.8 °F 94% 29.93 in 2.0 mi Variable 4.6 mph - N/A Rain , Thunderstorm Light Thunderstorms and Rain
2:22 PM 64.4 °F 60.8 °F 88% 29.92 in 4.0 mi North 3.5 mph - N/A Rain , Thunderstorm Light Thunderstorms and Rain
2:38 PM 64.4 °F 62.6 °F 94% 29.93 in 2.5 mi ESE 3.5 mph - N/A Rain , Thunderstorm Light Thunderstorms and Rain
4:45 PM 69.8 °F 66.2 °F 88% 29.91 in 10.0 mi South 16.1 mph - N/A   Partly Cloudy
4:55 PM 69.6 °F 66.6 °F 90% 29.91 in 10.0 mi South 15.0 mph 26.5 mph 0.01 in   Scattered Clouds
5:55 PM 68.9 °F 64.9 °F 87% 29.91 in 10.0 mi South 8.1 mph - N/A   Clear
6:10 PM 68.0 °F 64.4 °F 88% 29.92 in 10.0 mi SSW 6.9 mph - N/A Rain Light Rain
6:32 PM 68.0 °F 64.4 °F 88% 29.94 in 10.0 mi SSW 3.5 mph - N/A   Mostly Cloudy
6:39 PM 68.0 °F 64.4 °F 88% 29.94 in 10.0 mi Calm Calm - N/A   Mostly Cloudy
6:55 PM 67.6 °F 65.3 °F 92% 29.95 in 10.0 mi Calm Calm - 0.01 in   Mostly Cloudy
7:04 PM 68.0 °F 66.2 °F 94% 29.95 in 10.0 mi Calm Calm - N/A Thunderstorm Thunderstorm
7:27 PM 66.2 °F 66.2 °F 100% 29.94 in 10.0 mi West 3.5 mph - N/A   Mostly Cloudy
7:35 PM 66.2 °F 66.2 °F 100% 29.94 in 10.0 mi Calm Calm - N/A   Mostly Cloudy
7:55 PM 66.4 °F 65.3 °F 96% 29.94 in 10.0 mi South 3.5 mph - N/A   Partly Cloudy
8:46 PM 66.2 °F 66.2 °F 100% 29.94 in 10.0 mi SE 4.6 mph - N/A   Light Drizzle
8:55 PM 66.7 °F 65.8 °F 97% 29.94 in 10.0 mi SSE 4.6 mph - 0.00 in   Light Drizzle
9:06 PM 66.2 °F 66.2 °F 100% 29.94 in 10.0 mi SSE 4.6 mph - N/A   Scattered Clouds
9:55 PM 67.1 °F 66.2 °F 97% 29.93 in 10.0 mi Calm Calm - 0.00 in   Scattered Clouds
10:01 PM 66.2 °F 66.2 °F 100% 29.93 in 10.0 mi South 4.6 mph - N/A   Mostly Cloudy
10:12 PM 66.2 °F 66.2 °F 100% 29.93 in 10.0 mi South 4.6 mph - N/A   Mostly Cloudy
10:20 PM 68.0 °F 66.2 °F 94% 29.94 in 10.0 mi South 4.6 mph - N/A   Overcast
10:25 PM 68.0 °F 66.2 °F 94% 29.93 in 9.0 mi South 5.8 mph - N/A   Overcast
10:55 PM 67.1 °F 66.6 °F 98% 29.93 in 5.0 mi South 5.8 mph - N/A   Overcast
11:02 PM 68.0 °F 66.2 °F 94% 29.93 in 5.0 mi South 4.6 mph - N/A   Overcast
11:04 PM 68.0 °F 66.2 °F 94% 29.93 in 6.0 mi South 4.6 mph - N/A   Overcast
11:16 PM 68.0 °F 68.0 °F 100% 29.93 in 7.0 mi South 6.9 mph - N/A   Overcast
11:22 PM 68.0 °F 68.0 °F 100% 29.93 in 7.0 mi South 5.8 mph - N/A   Overcast
11:25 PM 68.0 °F 68.0 °F 100% 29.93 in 7.0 mi South 6.9 mph - N/A   Overcast
11:26 PM 68.0 °F 68.0 °F 100% 29.93 in 7.0 mi South 5.8 mph - N/A   Overcast
11:27 PM 68.0 °F 68.0 °F 100% 29.93 in 7.0 mi South 5.8 mph - N/A   Overcast
11:28 PM 68.0 °F 66.2 °F 94% 29.93 in 7.0 mi South 5.8 mph - N/A   Overcast
11:39 PM 68.0 °F 66.2 °F 94% 29.93 in 7.0 mi South 5.8 mph - N/A   Overcast
11:47 PM 68.0 °F 66.2 °F 94% 29.93 in 7.0 mi South 5.8 mph - N/A   Mostly Cloudy
11:55 PM 67.1 °F 66.7 °F 99% 29.93 in 6.0 mi South 4.6 mph - N/A   Mostly Cloudy